Location: Sternwarte auf dem Internationalen Platz Vogelsang IP
(50.5721°N, 6.4398°E)
Time: 20:17:27
(UTC+01:00)

A-11 Canister half - Pass Details

Date: 18 December 2025
Orbit: 1511 x 1688 km, 47.2° (Epoch: 19 January)

Event Time Altitude Azimuth Distance (km) Brightness Sun altitude
Rises 19:32:37 0° 284° (WNW) 4,716 12.7 -27.5°
Reaches altitude 10° 19:35:44 10° 280° (W) 3,752 11.9 -28.0°
Maximum altitude 19:44:47 51° 208° (SSW) 1,945 9.6 -29.4°
Enters shadow 19:49:47 29° 150° (SSE) 2,658 9.9 -30.2°
Drops below altitude 10° 19:54:10 10° 137° (SE) 3,878 - -30.9°
Sets 19:57:27 0° 132° (SE) 4,884 - -31.4°
